RYR228K EGPH-ESGG

Flight info

Callsign RYR228K
Flight time 1h 43m
Altitude 37000
Route GRICE P600 ASNUD DCT ALOTI DCT AMSEV DCT KUVUS N607 MAKUR
Aircraft B738/M-SDE2E3FGHIRWXY/LB1

Departure

Time 2026-04-22 10:10
Airport Edinburgh Airport (EGPH)

Arrival

Time 2026-04-22 11:54
Airport Göteborg Landvetter Airport (ESGG)
Time Latitude Longitude Altitude Speed Heading
2026-04-22 10:07 55.94543 -3.38028 112 ft 22 kts 238°
2026-04-22 10:07 55.94475 -3.38227 113 ft 15 kts 238°
2026-04-22 10:08 55.94413 -3.38406 112 ft 21 kts 238°
2026-04-22 10:08 55.94323 -3.38672 114 ft 23 kts 239°
2026-04-22 10:08 55.94285 -3.38839 115 ft 11 kts 289°
2026-04-22 10:08 55.94345 -3.38928 114 ft 11 kts 329°
2026-04-22 10:09 55.94419 -3.38942 111 ft 12 kts 34°
2026-04-22 10:09 55.94464 -3.38825 113 ft 12 kts 59°
2026-04-22 10:09 55.94579 -3.38487 111 ft 65 kts 59°
2026-04-22 10:09 55.94933 -3.37447 111 ft 128 kts 59°
2026-04-22 10:10 55.95454 -3.35932 489 ft 149 kts 59°
2026-04-22 10:10 55.96023 -3.34351 1299 ft 155 kts 57°
2026-04-22 10:10 55.96686 -3.32689 1877 ft 172 kts 50°
2026-04-22 10:10 55.97638 -3.31192 2269 ft 199 kts 40°
2026-04-22 10:11 55.98759 -3.29548 2662 ft 216 kts 42°
2026-04-22 10:11 56.00031 -3.27991 3208 ft 233 kts 28°
2026-04-22 10:11 56.01649 -3.27098 3762 ft 253 kts 12°
2026-04-22 10:11 56.03449 -3.27129 4517 ft 266 kts 353°
2026-04-22 10:12 56.05208 -3.28331 5303 ft 278 kts 329°
2026-04-22 10:12 56.06597 -3.30718 5795 ft 281 kts 303°
2026-04-22 10:12 56.07349 -3.33979 6000 ft 289 kts 283°
2026-04-22 10:12 56.07770 -3.37495 5998 ft 288 kts 281°
2026-04-22 10:13 56.08192 -3.40994 5993 ft 286 kts 282°
2026-04-22 10:13 56.08654 -3.44457 5996 ft 287 kts 282°
2026-04-22 10:13 56.09143 -3.47948 6004 ft 290 kts 283°
2026-04-22 10:13 56.09645 -3.51459 6000 ft 292 kts 283°
2026-04-22 10:14 56.10232 -3.54914 5976 ft 290 kts 294°
2026-04-22 10:14 56.11221 -3.58051 6000 ft 289 kts 300°
2026-04-22 10:14 56.12222 -3.61116 5996 ft 286 kts 300°
2026-04-22 10:14 56.13276 -3.64121 5977 ft 284 kts 311°
2026-04-22 10:15 56.14860 -3.66176 6002 ft 285 kts 339°
2026-04-22 10:15 56.16737 -3.67302 5998 ft 285 kts 348°
2026-04-22 10:15 56.18669 -3.68030 5981 ft 282 kts
2026-04-22 10:15 56.20520 -3.67314 6039 ft 269 kts 30°
2026-04-22 10:16 56.22133 -3.65618 6391 ft 271 kts 37°
2026-04-22 10:16 56.23663 -3.63622 7241 ft 272 kts 40°
2026-04-22 10:16 56.25175 -3.61571 8134 ft 273 kts 41°
2026-04-22 10:16 56.26702 -3.59530 8972 ft 276 kts 40°
2026-04-22 10:17 56.28263 -3.57470 9761 ft 280 kts 40°
2026-04-22 10:17 56.29851 -3.55395 10532 ft 285 kts 39°
2026-04-22 10:17 56.31504 -3.53277 10946 ft 301 kts 38°
2026-04-22 10:17 56.33285 -3.51005 11126 ft 325 kts 38°
2026-04-22 10:18 56.35177 -3.48591 11540 ft 339 kts 38°
2026-04-22 10:18 56.37124 -3.46107 12187 ft 345 kts 38°
2026-04-22 10:18 56.39091 -3.43566 12900 ft 350 kts 38°
2026-04-22 10:18 56.41077 -3.40979 13644 ft 354 kts 38°
2026-04-22 10:19 56.43090 -3.38352 14386 ft 360 kts 38°
2026-04-22 10:19 56.45141 -3.35697 15084 ft 364 kts 37°
2026-04-22 10:19 56.47238 -3.33085 15824 ft 368 kts 37°
2026-04-22 10:19 56.49370 -3.30469 16550 ft 372 kts 36°
2026-04-22 10:20 56.51528 -3.27823 17270 ft 377 kts 36°
2026-04-22 10:20 56.53711 -3.25136 17960 ft 382 kts 36°
2026-04-22 10:20 56.55169 -3.23334 18429 ft 384 kts 36°
2026-04-22 10:20 56.57388 -3.20584 19106 ft 389 kts 36°
2026-04-22 10:21 56.59627 -3.17801 19732 ft 392 kts 36°
2026-04-22 10:21 56.61885 -3.14992 20372 ft 395 kts 36°
2026-04-22 10:21 56.64903 -3.11227 21202 ft 399 kts 37°
2026-04-22 10:21 56.66453 -3.09278 21608 ft 401 kts 38°
2026-04-22 10:22 56.68532 -3.05898 22191 ft 402 kts 51°
2026-04-22 10:22 56.70163 -3.01788 22809 ft 401 kts 63°
2026-04-22 10:22 56.71333 -2.97196 23405 ft 401 kts 71°
2026-04-22 10:22 56.72346 -2.92444 23980 ft 404 kts 72°
2026-04-22 10:23 56.73343 -2.87637 24502 ft 406 kts 72°
2026-04-22 10:23 56.74337 -2.82819 25031 ft 407 kts 72°
2026-04-22 10:23 56.75330 -2.78032 25465 ft 411 kts 72°
2026-04-22 10:23 56.76347 -2.73151 25893 ft 414 kts 72°
2026-04-22 10:24 56.77381 -2.68217 26341 ft 417 kts 72°
2026-04-22 10:24 56.78423 -2.63256 26772 ft 420 kts 72°
2026-04-22 10:24 56.79474 -2.58261 27195 ft 423 kts 72°
2026-04-22 10:24 56.80529 -2.53237 27610 ft 426 kts 72°
2026-04-22 10:25 56.81592 -2.48172 28015 ft 428 kts 72°
2026-04-22 10:25 56.82658 -2.43076 28415 ft 431 kts 72°
2026-04-22 10:25 56.83729 -2.37942 28823 ft 434 kts 72°
2026-04-22 10:25 56.84802 -2.32788 29183 ft 436 kts 73°
2026-04-22 10:26 56.85881 -2.27581 29517 ft 440 kts 73°
2026-04-22 10:26 56.86967 -2.22336 29871 ft 443 kts 73°
2026-04-22 10:26 56.88058 -2.17056 30235 ft 445 kts 73°
2026-04-22 10:26 56.89151 -2.11752 30613 ft 446 kts 73°
2026-04-22 10:27 56.90243 -2.06447 31012 ft 445 kts 73°
2026-04-22 10:27 56.91329 -2.01153 31442 ft 444 kts 73°
2026-04-22 10:27 56.92411 -1.95866 31826 ft 443 kts 73°
2026-04-22 10:27 56.93489 -1.90575 32179 ft 444 kts 73°
2026-04-22 10:28 56.94566 -1.85277 32534 ft 444 kts 72°
2026-04-22 10:28 56.95640 -1.79980 32924 ft 443 kts 72°
2026-04-22 10:28 56.96708 -1.74695 33282 ft 442 kts 73°
2026-04-22 10:28 56.97770 -1.69425 33775 ft 438 kts 73°
2026-04-22 10:29 56.98823 -1.64191 34192 ft 437 kts 73°
2026-04-22 10:29 56.99872 -1.58962 34493 ft 438 kts 72°
2026-04-22 10:29 57.00922 -1.53713 34744 ft 439 kts 72°
2026-04-22 10:29 57.01973 -1.48448 35041 ft 438 kts 72°
2026-04-22 10:30 57.03017 -1.43203 35339 ft 437 kts 72°
2026-04-22 10:30 57.04058 -1.37955 35608 ft 438 kts 72°
2026-04-22 10:30 57.05098 -1.32699 35861 ft 438 kts 72°
2026-04-22 10:30 57.06136 -1.27444 36131 ft 438 kts 72°
2026-04-22 10:31 57.07170 -1.22189 36418 ft 437 kts 72°
2026-04-22 10:31 57.08202 -1.16932 36658 ft 437 kts 73°
2026-04-22 10:31 57.09223 -1.11711 37101 ft 432 kts 72°
2026-04-22 10:31 57.10222 -1.06602 37410 ft 430 kts 72°
2026-04-22 10:32 57.11235 -1.01403 37528 ft 432 kts 72°
2026-04-22 10:32 57.12250 -0.96175 37535 ft 435 kts 72°
2026-04-22 10:32 57.14279 -0.85691 37546 ft 433 kts 72°
2026-04-22 10:33 57.16285 -0.75274 37545 ft 430 kts 73°
2026-04-22 10:33 57.18271 -0.64897 37542 ft 428 kts 73°
2026-04-22 10:34 57.20242 -0.54546 37540 ft 427 kts 73°
2026-04-22 10:34 57.22200 -0.44204 37543 ft 427 kts 73°
2026-04-22 10:35 57.24148 -0.33858 37544 ft 427 kts 73°
2026-04-22 10:35 57.26089 -0.23490 37544 ft 428 kts 73°
2026-04-22 10:36 57.28032 -0.13061 37544 ft 429 kts 73°
2026-04-22 10:36 57.29969 -0.02603 37545 ft 431 kts 73°
2026-04-22 10:37 57.32869 0.13156 37553 ft 432 kts 73°
2026-04-22 10:38 57.34797 0.23708 37544 ft 433 kts 73°
2026-04-22 10:38 57.36719 0.34289 37537 ft 434 kts 73°
2026-04-22 10:39 57.38635 0.44896 37542 ft 434 kts 73°
2026-04-22 10:39 57.40528 0.55434 37527 ft 433 kts 74°
2026-04-22 10:40 57.42421 0.66023 37539 ft 431 kts 73°
2026-04-22 10:40 57.44293 0.76571 37524 ft 429 kts 73°
2026-04-22 10:41 57.46148 0.87075 37530 ft 427 kts 74°
2026-04-22 10:41 57.47981 0.97523 37525 ft 424 kts 74°
2026-04-22 10:42 57.49796 1.07921 37530 ft 422 kts 74°
2026-04-22 10:42 57.51596 1.18290 37531 ft 421 kts 74°
2026-04-22 10:43 57.53380 1.28628 37529 ft 419 kts 74°
2026-04-22 10:43 57.55152 1.38960 37527 ft 418 kts 74°
2026-04-22 10:44 57.56913 1.49285 37525 ft 418 kts 74°
2026-04-22 10:44 57.58665 1.59611 37526 ft 418 kts 74°
2026-04-22 10:45 57.60408 1.69947 37521 ft 418 kts 74°
2026-04-22 10:45 57.62146 1.80314 37522 ft 419 kts 74°
2026-04-22 10:46 57.63877 1.90695 37511 ft 419 kts 75°
2026-04-22 10:46 57.65599 2.01090 37517 ft 419 kts 75°
2026-04-22 10:47 57.67300 2.11420 37517 ft 419 kts 75°
2026-04-22 10:47 57.69004 2.21826 37504 ft 419 kts 75°
2026-04-22 10:48 57.70699 2.32236 37504 ft 418 kts 75°
2026-04-22 10:48 57.72383 2.42645 37492 ft 418 kts 75°
2026-04-22 10:49 57.74056 2.53039 37496 ft 417 kts 75°
2026-04-22 10:49 57.75716 2.63426 37494 ft 416 kts 75°
2026-04-22 10:50 57.77363 2.73789 37489 ft 415 kts 75°
2026-04-22 10:50 57.78999 2.84143 37492 ft 414 kts 75°
2026-04-22 10:51 57.80621 2.94479 37493 ft 413 kts 75°
2026-04-22 10:51 57.82232 3.04804 37490 ft 412 kts 75°
2026-04-22 10:52 57.83832 3.15119 37493 ft 411 kts 76°
2026-04-22 10:52 57.85420 3.25421 37488 ft 410 kts 76°
2026-04-22 10:53 57.86997 3.35714 37487 ft 410 kts 76°
2026-04-22 10:53 57.88564 3.46001 37476 ft 409 kts 76°
2026-04-22 10:54 57.90117 3.56276 37480 ft 408 kts 77°
2026-04-22 10:54 57.90733 3.66695 37470 ft 403 kts 93°
2026-04-22 10:55 57.90443 3.77214 37474 ft 402 kts 94°
2026-04-22 10:55 57.90134 3.87698 37471 ft 401 kts 94°
2026-04-22 10:56 57.89837 3.98156 37468 ft 400 kts 94°
2026-04-22 10:56 57.89545 4.08592 37468 ft 399 kts 94°
2026-04-22 10:57 57.89248 4.19010 37458 ft 399 kts 94°
2026-04-22 10:57 57.88945 4.29416 37463 ft 398 kts 94°
2026-04-22 10:58 57.88634 4.39796 37451 ft 398 kts 94°
2026-04-22 10:58 57.88313 4.50178 37453 ft 397 kts 94°
2026-04-22 10:59 57.87984 4.60542 37452 ft 397 kts 94°
2026-04-22 10:59 57.87648 4.70891 37442 ft 397 kts 94°
2026-04-22 11:00 57.87303 4.81232 37443 ft 397 kts 94°
2026-04-22 11:00 57.86952 4.91566 37444 ft 396 kts 94°
2026-04-22 11:01 57.86591 5.01887 37433 ft 396 kts 94°
2026-04-22 11:01 57.86221 5.12202 37423 ft 396 kts 94°
2026-04-22 11:02 57.85908 5.20768 37424 ft 395 kts 94°
2026-04-22 11:03 57.85621 5.28476 37424 ft 395 kts 94°
2026-04-22 11:03 57.85232 5.38764 37409 ft 395 kts 94°
2026-04-22 11:04 57.84834 5.49042 37409 ft 395 kts 94°
2026-04-22 11:04 57.84431 5.59243 37410 ft 394 kts 94°
2026-04-22 11:05 57.84017 5.69500 37395 ft 394 kts 94°
2026-04-22 11:05 57.83595 5.79756 37396 ft 394 kts 94°
2026-04-22 11:06 57.83162 5.90069 37396 ft 394 kts 95°
2026-04-22 11:06 57.82727 6.00246 37396 ft 394 kts 95°
2026-04-22 11:07 57.82281 6.10486 37358 ft 393 kts 94°
2026-04-22 11:07 57.81828 6.20682 37372 ft 392 kts 95°
2026-04-22 11:08 57.81444 6.29187 37372 ft 390 kts 95°
2026-04-22 11:08 57.81103 6.36628 37365 ft 389 kts 95°
2026-04-22 11:09 57.80698 6.45351 37368 ft 388 kts 95°
2026-04-22 11:09 57.80224 6.55405 37369 ft 386 kts 95°
2026-04-22 11:10 57.79743 6.65420 37357 ft 385 kts 95°
2026-04-22 11:10 57.79257 6.75413 37366 ft 384 kts 95°
2026-04-22 11:11 57.78765 6.85319 37344 ft 384 kts 95°
2026-04-22 11:11 57.78263 6.95270 37343 ft 383 kts 95°
2026-04-22 11:12 57.77754 7.05211 37340 ft 383 kts 95°
2026-04-22 11:12 57.77238 7.15147 37340 ft 383 kts 95°
2026-04-22 11:13 57.76713 7.25087 37338 ft 383 kts 95°
2026-04-22 11:13 57.76182 7.35028 37337 ft 384 kts 95°
2026-04-22 11:14 57.75641 7.44975 37331 ft 384 kts 95°
2026-04-22 11:14 57.75091 7.54925 37331 ft 384 kts 95°
2026-04-22 11:15 57.74534 7.64877 37331 ft 384 kts 95°
2026-04-22 11:15 57.73969 7.74832 37331 ft 385 kts 95°
2026-04-22 11:16 57.73396 7.84786 37328 ft 385 kts 95°
2026-04-22 11:16 57.72819 7.94675 37336 ft 385 kts 95°
2026-04-22 11:17 57.72226 8.04690 37327 ft 385 kts 95°
2026-04-22 11:17 57.71633 8.14572 37328 ft 385 kts 95°
2026-04-22 11:18 57.71030 8.24501 37329 ft 384 kts 95°
2026-04-22 11:18 57.70420 8.34413 37325 ft 384 kts 95°
2026-04-22 11:19 57.69801 8.44338 37324 ft 384 kts 95°
2026-04-22 11:19 57.69177 8.54233 37331 ft 383 kts 95°
2026-04-22 11:20 57.68544 8.64121 37322 ft 383 kts 95°
2026-04-22 11:20 57.67906 8.74003 37326 ft 383 kts 95°
2026-04-22 11:21 57.67063 8.83815 37326 ft 384 kts 102°
2026-04-22 11:21 57.65664 8.93441 37323 ft 384 kts 103°
2026-04-22 11:22 57.64226 9.03040 37323 ft 384 kts 103°
2026-04-22 11:22 57.62804 9.12645 37217 ft 386 kts 102°
2026-04-22 11:22 57.62094 9.17466 36937 ft 382 kts 102°
2026-04-22 11:23 57.61394 9.22204 36557 ft 376 kts 102°
2026-04-22 11:23 57.60706 9.26861 36220 ft 370 kts 102°
2026-04-22 11:23 57.60027 9.31456 35853 ft 365 kts 102°
2026-04-22 11:23 57.59355 9.35984 35466 ft 360 kts 102°
2026-04-22 11:24 57.58691 9.40455 35113 ft 355 kts 102°
2026-04-22 11:24 57.58034 9.44866 34753 ft 351 kts 102°
2026-04-22 11:24 57.57385 9.49214 34388 ft 346 kts 102°
2026-04-22 11:24 57.56751 9.53449 34006 ft 341 kts 102°
2026-04-22 11:25 57.56117 9.57675 33665 ft 337 kts 102°
2026-04-22 11:25 57.55489 9.61847 33297 ft 332 kts 102°
2026-04-22 11:25 57.54869 9.65955 32938 ft 328 kts 102°
2026-04-22 11:25 57.54256 9.70012 32579 ft 324 kts 102°
2026-04-22 11:26 57.53648 9.74023 32243 ft 320 kts 102°
2026-04-22 11:26 57.53046 9.77988 31887 ft 317 kts 102°
2026-04-22 11:26 57.52448 9.81914 31545 ft 314 kts 102°
2026-04-22 11:26 57.51854 9.85805 31218 ft 311 kts 102°
2026-04-22 11:27 57.51264 9.89659 30881 ft 309 kts 102°
2026-04-22 11:27 57.50676 9.93491 30551 ft 307 kts 103°
2026-04-22 11:27 57.50092 9.97294 30198 ft 305 kts 103°
2026-04-22 11:27 57.49510 10.01073 29850 ft 302 kts 103°
2026-04-22 11:28 57.48931 10.04824 29501 ft 303 kts 103°
2026-04-22 11:28 57.48343 10.08629 29182 ft 313 kts 103°
2026-04-22 11:28 57.47728 10.12614 28798 ft 327 kts 103°
2026-04-22 11:28 57.47098 10.16672 28406 ft 326 kts 103°
2026-04-22 11:29 57.46470 10.20693 28042 ft 322 kts 103°
2026-04-22 11:29 57.45845 10.24676 27703 ft 319 kts 103°
2026-04-22 11:29 57.45226 10.28620 27325 ft 317 kts 103°
2026-04-22 11:29 57.44611 10.32533 26968 ft 315 kts 103°
2026-04-22 11:30 57.43999 10.36422 26607 ft 313 kts 103°
2026-04-22 11:30 57.43389 10.40291 26254 ft 311 kts 103°
2026-04-22 11:30 57.42781 10.44133 25906 ft 310 kts 103°
2026-04-22 11:30 57.42176 10.47957 25562 ft 308 kts 103°
2026-04-22 11:31 57.41571 10.51767 25218 ft 307 kts 103°
2026-04-22 11:31 57.40967 10.55565 24871 ft 307 kts 103°
2026-04-22 11:31 57.40363 10.59352 24529 ft 306 kts 103°
2026-04-22 11:31 57.39758 10.63140 24172 ft 306 kts 103°
2026-04-22 11:32 57.39151 10.66930 23799 ft 308 kts 103°
2026-04-22 11:32 57.38541 10.70732 23417 ft 309 kts 103°
2026-04-22 11:32 57.37922 10.74583 23054 ft 314 kts 103°
2026-04-22 11:32 57.37291 10.78506 22698 ft 321 kts 103°
2026-04-22 11:33 57.36649 10.82484 22342 ft 323 kts 103°
2026-04-22 11:33 57.36006 10.86455 21966 ft 321 kts 103°
2026-04-22 11:33 57.35365 10.90396 21607 ft 318 kts 103°
2026-04-22 11:33 57.34727 10.94307 21258 ft 316 kts 103°
2026-04-22 11:34 57.34278 10.98248 20904 ft 310 kts 89°
2026-04-22 11:34 57.34425 11.02194 20542 ft 306 kts 76°
2026-04-22 11:34 57.35070 11.05929 20078 ft 306 kts 66°
2026-04-22 11:34 57.35900 11.09557 19695 ft 306 kts 65°
2026-04-22 11:35 57.36744 11.13162 19350 ft 304 kts 65°
2026-04-22 11:35 57.37580 11.16754 19016 ft 303 kts 65°
2026-04-22 11:35 57.38406 11.20344 18664 ft 302 kts 65°
2026-04-22 11:35 57.39223 11.23924 18297 ft 301 kts 65°
2026-04-22 11:36 57.40033 11.27498 17930 ft 300 kts 65°
2026-04-22 11:36 57.40837 11.31057 17562 ft 298 kts 65°
2026-04-22 11:36 57.41635 11.34606 17193 ft 297 kts 65°
2026-04-22 11:36 57.42431 11.38154 16762 ft 299 kts 65°
2026-04-22 11:37 57.43241 11.41652 16360 ft 299 kts 62°
2026-04-22 11:37 57.44208 11.45083 15940 ft 299 kts 59°
2026-04-22 11:37 57.45224 11.48443 15601 ft 298 kts 58°
2026-04-22 11:37 57.46240 11.51783 15267 ft 296 kts 58°
2026-04-22 11:38 57.47245 11.55112 14945 ft 295 kts 58°
2026-04-22 11:38 57.48238 11.58428 14660 ft 292 kts 58°
2026-04-22 11:38 57.50186 11.64998 14036 ft 289 kts 58°
2026-04-22 11:39 57.51150 11.68269 13684 ft 288 kts 58°
2026-04-22 11:39 57.52107 11.71523 13364 ft 286 kts 58°
2026-04-22 11:39 57.53058 11.74761 13036 ft 284 kts 58°
2026-04-22 11:39 57.54002 11.77983 12707 ft 283 kts 58°
2026-04-22 11:40 57.54939 11.81189 12386 ft 281 kts 58°
2026-04-22 11:40 57.55872 11.84385 12061 ft 280 kts 58°
2026-04-22 11:40 57.56695 11.87673 11752 ft 280 kts 64°
2026-04-22 11:40 57.57423 11.91037 11435 ft 279 kts 64°
2026-04-22 11:41 57.57894 11.93262 11257 ft 278 kts 64°
2026-04-22 11:41 57.58488 11.96061 11051 ft 275 kts 64°
2026-04-22 11:41 57.59193 11.99354 10808 ft 272 kts 64°
2026-04-22 11:42 57.59892 12.02600 10568 ft 269 kts 64°
2026-04-22 11:42 57.60593 12.05826 10293 ft 268 kts 63°
2026-04-22 11:42 57.61283 12.08998 10014 ft 267 kts 63°
2026-04-22 11:42 57.61980 12.12205 9703 ft 266 kts 63°
2026-04-22 11:43 57.62676 12.15412 9380 ft 266 kts 63°
2026-04-22 11:43 57.63170 12.18746 9055 ft 274 kts 85°
2026-04-22 11:43 57.62711 12.22155 9019 ft 270 kts 113°
2026-04-22 11:43 57.61557 12.24877 8695 ft 270 kts 135°
2026-04-22 11:44 57.59991 12.26759 8205 ft 267 kts 156°
2026-04-22 11:44 57.58199 12.27309 7701 ft 261 kts 186°
2026-04-22 11:44 57.56428 12.26825 7342 ft 252 kts 191°
2026-04-22 11:44 57.54732 12.26248 7010 ft 243 kts 193°
2026-04-22 11:45 57.53104 12.25537 6519 ft 240 kts 198°
2026-04-22 11:45 57.51485 12.24766 6088 ft 236 kts 191°
2026-04-22 11:45 57.49877 12.24353 5700 ft 231 kts 189°
2026-04-22 11:45 57.48326 12.24040 5550 ft 218 kts 187°
2026-04-22 11:46 57.46801 12.23730 5223 ft 220 kts 188°
2026-04-22 11:46 57.45307 12.23366 4992 ft 212 kts 197°
2026-04-22 11:46 57.44042 12.22202 4863 ft 196 kts 224°
2026-04-22 11:46 57.43199 12.20352 4667 ft 184 kts 248°
2026-04-22 11:47 57.42845 12.18215 4538 ft 165 kts 274°
2026-04-22 11:47 57.42942 12.16134 4500 ft 162 kts 289°
2026-04-22 11:47 57.43372 12.14239 4523 ft 157 kts 308°
2026-04-22 11:47 57.44081 12.12705 4553 ft 156 kts 322°
2026-04-22 11:48 57.44971 12.11585 4546 ft 155 kts 335°
2026-04-22 11:48 57.46011 12.10961 4468 ft 158 kts 349°
2026-04-22 11:48 57.47134 12.11040 4295 ft 164 kts 14°
2026-04-22 11:48 57.48170 12.11785 4237 ft 158 kts 19°
2026-04-22 11:49 57.49179 12.12557 4044 ft 157 kts 18°
2026-04-22 11:49 57.50174 12.13374 3906 ft 156 kts 21°
2026-04-22 11:49 57.51147 12.14252 3667 ft 154 kts 21°
2026-04-22 11:49 57.52068 12.15111 3436 ft 143 kts 22°
2026-04-22 11:50 57.52948 12.15905 3261 ft 140 kts 21°
2026-04-22 11:50 57.53818 12.16696 3088 ft 140 kts 21°
2026-04-22 11:50 57.54687 12.17504 2934 ft 139 kts 20°
2026-04-22 11:50 57.55557 12.18278 2670 ft 141 kts 19°
2026-04-22 11:51 57.56432 12.19047 2425 ft 139 kts 20°
2026-04-22 11:51 57.57324 12.19825 2212 ft 143 kts 20°
2026-04-22 11:51 57.58226 12.20634 2054 ft 144 kts 21°
2026-04-22 11:51 57.59101 12.21465 1861 ft 140 kts 21°
2026-04-22 11:52 57.59967 12.22266 1678 ft 140 kts 20°
2026-04-22 11:52 57.60864 12.23053 1484 ft 143 kts 20°
2026-04-22 11:52 57.61779 12.23899 1294 ft 152 kts 22°
2026-04-22 11:52 57.62748 12.24749 1067 ft 156 kts 19°
2026-04-22 11:53 57.63707 12.25623 824 ft 149 kts 20°
2026-04-22 11:53 57.64627 12.26483 617 ft 146 kts 22°
2026-04-22 11:53 57.65508 12.27279 509 ft 131 kts 20°
2026-04-22 11:53 57.66204 12.27910 508 ft 83 kts 26°
2026-04-22 11:54 57.66533 12.28208 511 ft 22 kts 31°
2026-04-22 11:54 57.66579 12.28268 511 ft 17 kts 37°
2026-04-22 11:54 57.66666 12.28442 511 ft 19 kts 52°
2026-04-22 11:54 57.66715 12.28572 511 ft 18 kts 55°
2026-04-22 11:55 57.66764 12.28704 512 ft 6 kts 56°
2026-04-22 11:55 57.66778 12.28744 512 ft 0 kts 56°
2026-04-22 11:55 57.66779 12.28746 512 ft 3 kts 56°
2026-04-22 11:55 57.66827 12.28853 512 ft 13 kts 75°
2026-04-22 11:56 57.66798 12.29011 515 ft 13 kts 116°
2026-04-22 11:56 57.66763 12.29138 515 ft 8 kts 118°
2026-04-22 11:56 57.66744 12.29209 515 ft 3 kts 116°
2026-04-22 11:56 57.66734 12.29245 542 ft 3 kts 117°
2026-04-22 11:57 57.66730 12.29261 505 ft 0 kts 117°